Location: Gebenbach
(49.5378°N, 11.8735°E)
Time: 14:50:00
(UTC+00:00)

AQUARIUS - Pass Details

Date: 29 October 2020
Orbit: 650 x 653 km, 98.0° (Epoch: 28 November)

Event Time Altitude Azimuth Distance (km) Brightness Sun altitude
Rises 16:31:37 0° 164° (SSE) 2,963 7.5 -6.5°
Reaches altitude 10° 16:33:49 10° 164° (SSE) 2,057 6.7 -6.9°
Maximum altitude 16:38:19 89° 77° (ENE) 661 4.2 -7.6°
Drops below altitude 10° 16:42:51 10° 346° (NNW) 2,072 6.8 -8.3°
Sets 16:45:04 0° 347° (NNW) 2,988 7.6 -8.7°
